Location: ??????
(41.3794°N, 22.5014°E)
Time: 07:44:25
(UTC+00:00)

USA 215 - Pass Details

Date: 30 November 2020
Orbit: 1098 x 1110 km, 123.0° (Epoch: 14 January)

Event Time Altitude Azimuth Distance (km) Brightness Sun altitude
Exits shadow 17:43:41 48° 12° (NNE) 1,427 3.6 -29.8°
Maximum altitude 17:45:12 58° 326° (NW) 1,274 3.6 -30.1°
Drops below altitude 10° 17:51:36 10° 249° (WSW) 2,969 6.3 -31.3°
Sets 17:54:07 0° 245° (WSW) 3,925 7.1 -31.8°
